Location: Br�znic
(45.9167°N, 22.6500°E)
Time: 18:40:35
(UTC+00:00)

Cosmos 1703 Rocket - Pass Details

Date: 03 March 2021
Orbit: 604 x 634 km, 82.5° (Epoch: 12 April)

Event Time Altitude Azimuth Distance (km) Brightness Sun altitude
Rises 17:10:31 0° 359° (N) 2,912 7.0 -9.8°
Reaches altitude 10° 17:12:59 10° 10° (N) 1,995 6.1 -10.2°
Maximum altitude 17:16:56 32° 73° (ENE) 1,076 4.3 -10.9°
Drops below altitude 10° 17:20:50 10° 137° (SE) 1,965 5.7 -11.6°
Enters shadow 17:22:15 - 144° (SE) 2,485 6.3 -11.8°
